Regional Weather Roundup
Issued by NWS

Home | Current Version | Previous Version | Text Only | Print | Product List | Glossary Off
Versions: 1 2 3 4 5 6 7 8 9 10 11 12 13 14 15 16 17 18 19 20 21 22 23 24 25 26 27 28 29 30 31 32 33 34 35 36 37 38 39 40 41 42 43 44 45 46 47 48 49 50

000
ASUS43 KFSD 080210
RWRSD

WEATHER ROUNDUP FOR SOUTH DAKOTA
NATIONAL WEATHER SERVICE SIOUX FALLS SD
900 PM CDT TUE JUL 07 2015

NOTE: "FAIR" INDICATES FEW OR NO CLOUDS BELOW 12,000 FEET WITH NO
SIGNIFICANT WEATHER AND/OR OBSTRUCTIONS TO VISIBILITY.


SDZ001>005-009-010-012>017-080300-
NORTHWEST AND NORTH CENTRAL SOUTH DAKOTA

CITY           SKY/WX    TMP DP  RH WIND       PRES   REMARKS
BUFFALO          N/A     69  59  70 NE8       29.89F
FAITH            N/A     70  56  61 S22G29    29.96F
MOBRIDGE       PTCLDY    71  57  61 S17       29.99S
$$

SDZ012>016-024>037-041>051-057-063-072>074-080300-
SOUTHWEST AND SOUTH CENTRAL SOUTH DAKOTA

CITY           SKY/WX    TMP DP  RH WIND       PRES   REMARKS
RAPID CTY ARPT PTCLDY    67  57  70 SE8       29.99F
PIERRE         CLOUDY    68  56  65 SE14      30.02S
CUSTER         MOCLDY    60  53  77 S7        30.11F HAZE
ELLSWORTH AFB  PTCLDY    69  57  67 S14       29.98S
PHILIP         CLEAR     71  58  63 S10       29.99S
PINE RIDGE     CLEAR     68  52  56 S14G21    30.04F
SPEARFISH      MOCLDY    66  57  72 W9        30.02R
WINNER         FAIR      68  55  63 SE10      30.06F
$$

SDZ004>011-016>023-039-040-080300-
NORTHEAST SOUTH DAKOTA

CITY           SKY/WX    TMP DP  RH WIND       PRES   REMARKS
ABERDEEN       PTCLDY    64  49  57 S8        30.06S
WATERTOWN      PTCLDY    64  47  53 SE6       30.09S
BROOKINGS      MOCLDY    63  46  55 SE7       30.11F
SISSETON         N/A     62  50  64 S7        30.06F
$$

SDZ017-020-022-023-036>040-048>070-080300-
SOUTHEAST SOUTH DAKOTA

CITY           SKY/WX    TMP DP  RH WIND       PRES   REMARKS
SIOUX FALLS    MOCLDY    63  50  62 E8        30.10S
HURON          MOCLDY    65  50  58 S6        30.07S
CHAMBERLAIN    MOCLDY    64  57  79 SE7       30.07S
MITCHELL       PTCLDY    66  55  67 SE3       30.08F
YANKTON        PTCLDY    63  54  72 E6        30.08S
$$

ABBREVIATIONS USED IN REMARKS
   TC - TEMPERATURE IN CELSIUS
  WCI - WIND CHILL INDEX
   HX - HEAT INDEX
  VSB - VISIBILITY




USA.gov is the U.S. government's official web portal to all federal, state and local government web resources and services.